Flag for Canada Weather past 2 weeks in Peterborough, Ontario, Canada

Now
41 °F

Overcast.


Feels Like: 38 °F
Forecast: 32 / 53 °F
Wind: 5 mph from North

Location: Peterborough Airport

Current Time: Apr 26, 2015 at 6:44:40 AM

Latest Report: Apr 26, 2015 at 6:00 AM


Visibility: 9 mi

Pressure: 29.81 "Hg

Humidity: 70%

Dew point: 32 °F

Location of PeterboroughLocation

Historic Weather in Peterborough — Graph

°F

Peterborough temperature yesterday

Maximum temperature yesterday: 52 °F (at 3:00 PM)
Minimum temperature yesterday: 25 °F (at 6:00 AM)
Average temperature yesterday: 40 °F

Past Weeks' High & Low Weather Summary

 TemperatureHumidityPressure
High68 °F (Apr 13, 2:00 PM)100% (Apr 12, 5:00 AM)30.44 "Hg (Apr 12, 5:00 AM)
Low25 °F (Apr 25, 6:00 AM)19% (Apr 18, 4:00 PM)29.42 "Hg (Apr 20, 4:51 PM)
Average44 °F68%29.96 "Hg
* Reported Apr 11 5:00 AM — Apr 26 5:00 AM, Peterborough, Weather by CustomWeather, © 2015

Note: Actual official high and low records may vary slightly from our data, if they occured in-between our weather recording intervals... More about our weather records

Advertising

Peterborough weather history for previous 24 hours

 ConditionsComfort  
Time TempWeatherWind HumidityBarometerVisibility
5:00 AM
Sun, Apr 26
41 °FOvercast.6 mph70%29.80 "Hg9 mi
4:00 AM41 °FOvercast.6 mph70%29.80 "Hg9 mi
3:00 AM43 °FOvercast.10 mph66%29.80 "Hg9 mi
2:00 AM43 °FOvercast.5 mph66%29.81 "Hg9 mi
1:00 AM45 °FOvercast.5 mph61%29.82 "Hg9 mi
12:00 AM45 °FOvercast.5 mph61%29.82 "Hg9 mi
11:00 PM
Sat, Apr 25
45 °FOvercast.6 mph61%29.82 "Hg9 mi
10:00 PM45 °FOvercast.No wind57%29.82 "Hg9 mi
9:00 PM46 °FOvercast.8 mph57%29.80 "Hg9 mi
8:00 PM48 °FOvercast.3 mph50%29.80 "Hg9 mi
7:00 PM50 °FOvercast.8 mph50%29.79 "Hg9 mi
6:00 PM48 °FOvercast.7 mph54%29.80 "Hg9 mi
5:00 PM52 °FOvercast.6 mph35%29.80 "Hg9 mi
4:00 PM52 °FOvercast.6 mph35%29.82 "Hg9 mi
3:00 PM52 °FPartly sunny.13 mph38%29.84 "Hg9 mi
2:00 PM50 °FScattered clouds.14 mph40%29.88 "Hg9 mi
1:00 PM48 °FSunny.9 mph43%29.91 "Hg9 mi
12:00 PM45 °FSunny.10 mph49%29.93 "Hg9 mi
11:00 AM43 °FSunny.12 mph53%29.95 "Hg9 mi
10:00 AM41 °FSunny.13 mph53%29.96 "Hg9 mi
9:00 AM37 °FSunny.7 mph60%29.97 "Hg9 mi
8:00 AM32 °FSunny.2 mph80%29.99 "Hg9 mi
7:00 AM27 °FClear.5 mph93%29.99 "Hg9 mi
6:00 AM25 °FClear.2 mph93%30.00 "Hg9 mi
Weather by CustomWeather, © 2015

See weather overviewHow to use our weather pages